Pagina principale
METAR-TAF:

METAR-TAF

Aeroporti :

York Airport

York, Pennsylvania, Stati Uniti

latitudine: 39-55-10N, longitudine: 076-52-37W, altezza: 146 m

Osservazione

Il bollettino è stato emesso 1 ora e 11 minuti fa, alle 21:53 UTC
Vento 3 kt da direzioni variabili
Temperature 25°C
Umidità 36%
Pressione 1010 hPa
Visibilità: 16.1 km
Cielo sereno

METAR: KTHV 232153Z AUTO VRB03KT 10SM CLR 25/09 A2983 RMK AO2 SLP102 T02500089

Ora: 19:04 (23:04 UTC)


TAF: mancante

Osservazioni e previsioni meteorologiche di più di 4000 aeroporti (messaggi METAR e TAF).

Le stazioni disponibili sono rappresentate dai dischi gialli e rossi sulla carta.

Puntare il mouse per vedere il nome della stazione.

Clicca sopra per visualizzare le osservazioni e previsioni meteorologiche.

Per cambiare la mappa : fare clic sui pulsanti verdi con una croce nera per ingrandire, il pulsante verde con un trattino per diminuire, o sulla freccia verde per le mappe adiacenti.


METAR-TAF: